Change the Weather History Date:

Tuesday, April 9, 2013

  Actual Average Record
Temperature  
Mean Temperature 42 °F -  
Max Temperature 55 °F 54 °F 79 °F (1985)
Min Temperature 30 °F 30 °F 7 °F (1929)
Degree Days  
Heating Degree Days 22    
Moisture  
Dew Point 25 °F    
Average Humidity 57    
Maximum Humidity 86    
Minimum Humidity 25    
Precipitation  
Precipitation 0.00 in - - ()
Sea Level Pressure  
Sea Level Pressure 30.21 in    
Wind  
Wind Speed 11 mph (North)    
Max Wind Speed 18 mph    
Max Gust Speed 24 mph    
Visibility 10 miles    
Events      
Averages and records for this station are not official NWS values.
T = Trace of Precipitation, MM = Missing Value Source: NWS Daily Summary

Daily Weather History Graph

Daily Weather History Graph

Search for Another Location

Airport or City:

Trip Planner

Search our weather history database for the weather conditions in past years. The results will help you decide how hot, cold, wet, or windy it might be!

Date:

Astronomy

Apr. 09, 2013 Rise Set
Actual Time 6:30 AM PDT 7:36 PM PDT
Civil Twilight 6:01 AM PDT 8:05 PM PDT
Nautical Twilight 5:27 AM PDT 8:39 PM PDT
Astronomical Twilight 4:51 AM PDT 9:15 PM PDT
Moon 5:55 AM PDT (4/9) 7:17 PM PDT (4/9)
Length of Visible Light 14h 03m
Length of Day
13h 06m
Waning Crescent, 0% of the Moon is Illuminated
Apr 9
Waning Crescent
Apr 10
New
Apr 18
First Quarter
Apr 25
Full
May 2
Last Quarter

Hourly Weather History & Observations

Time (PDT) Temp. Windchill Dew Point Humidity Pressure Visibility Wind Dir Wind Speed Gust Speed Precip Events Conditions
12:15 AM 35.6 °F 27.5 °F 24.8 °F 65% 30.14 in 10.0 mi North 11.5 mph 18.4 mph N/A   Unknown
12:35 AM 35.6 °F 30.7 °F 24.8 °F 65% 30.15 in 10.0 mi North 5.8 mph 16.1 mph N/A   Unknown
12:55 AM 33.8 °F 30.8 °F 26.6 °F 75% 30.15 in 10.0 mi ENE 3.5 mph - N/A   Unknown
1:15 AM 33.8 °F 30.8 °F 24.8 °F 70% 30.15 in 10.0 mi NNE 3.5 mph - N/A   Unknown
1:35 AM 33.8 °F 27.0 °F 26.6 °F 75% 30.15 in 10.0 mi NNE 8.1 mph - N/A   Unknown
1:55 AM 33.8 °F 26.4 °F 26.6 °F 75% 30.16 in 10.0 mi North 9.2 mph - N/A   Unknown
2:15 AM 33.8 °F 25.8 °F 26.6 °F 75% 30.16 in 10.0 mi NNE 10.4 mph - N/A   Unknown
2:35 AM 33.8 °F 28.6 °F 24.8 °F 70% 30.15 in 10.0 mi NE 5.8 mph - N/A   Unknown
2:55 AM 33.8 °F 27.0 °F 24.8 °F 70% 30.15 in 10.0 mi North 8.1 mph - N/A   Unknown
3:15 AM 32.0 °F 24.8 °F 26.6 °F 80% 30.15 in 10.0 mi North 8.1 mph - N/A   Unknown
3:35 AM 33.8 °F 24.8 °F 26.6 °F 75% 30.15 in 10.0 mi North 12.7 mph - N/A   Unknown
3:55 AM 32.0 °F 22.5 °F 24.8 °F 75% 30.15 in 10.0 mi North 12.7 mph - N/A   Unknown
4:15 AM 32.0 °F 22.5 °F 26.6 °F 80% 30.15 in 10.0 mi North 12.7 mph - N/A   Unknown
4:35 AM 30.2 °F 20.8 °F 24.8 °F 80% 30.16 in 10.0 mi North 11.5 mph - N/A   Unknown
4:55 AM 30.2 °F 20.8 °F 26.6 °F 86% 30.17 in 10.0 mi NNE 11.5 mph - N/A   Unknown
5:15 AM 30.2 °F 20.2 °F 26.6 °F 86% 30.17 in 10.0 mi NNE 12.7 mph - N/A   Unknown
5:35 AM 30.2 °F 21.3 °F 24.8 °F 80% 30.17 in 10.0 mi NNE 10.4 mph - N/A   Unknown
5:55 AM 32.0 °F 23.0 °F 26.6 °F 80% 30.18 in 10.0 mi NNE 11.5 mph - N/A   Unknown
6:15 AM 32.0 °F 22.1 °F 26.6 °F 80% 30.19 in 10.0 mi NNE 13.8 mph - N/A   Unknown
6:35 AM 32.0 °F 22.5 °F 26.6 °F 80% 30.19 in 10.0 mi North 12.7 mph 17.3 mph N/A   Unknown
6:55 AM 33.8 °F 24.8 °F 26.6 °F 75% 30.20 in 10.0 mi North 12.7 mph 18.4 mph N/A   Unknown
7:15 AM 33.8 °F 24.3 °F 26.6 °F 75% 30.21 in 10.0 mi North 13.8 mph 20.7 mph N/A   Unknown
7:35 AM 33.8 °F 23.9 °F 26.6 °F 75% 30.22 in 10.0 mi North 15.0 mph - N/A   Unknown
7:55 AM 35.6 °F 26.2 °F 26.6 °F 70% 30.22 in 10.0 mi North 15.0 mph - N/A   Unknown
8:15 AM 35.6 °F 25.9 °F 26.6 °F 70% 30.23 in 10.0 mi North 16.1 mph 23.0 mph N/A   Unknown
8:35 AM 35.6 °F 25.5 °F 26.6 °F 70% 30.23 in 10.0 mi North 17.3 mph 23.0 mph N/A   Unknown
8:55 AM 37.4 °F 28.2 °F 26.6 °F 65% 30.24 in 10.0 mi North 16.1 mph 23.0 mph N/A   Unknown
9:15 AM 37.4 °F 27.5 °F 26.6 °F 65% 30.24 in 10.0 mi North 18.4 mph 23.0 mph N/A   Unknown
9:35 AM 37.4 °F 28.2 °F 26.6 °F 65% 30.24 in 10.0 mi North 16.1 mph 24.2 mph N/A   Unknown
9:55 AM 39.2 °F 30.5 °F 26.6 °F 61% 30.24 in 10.0 mi North 16.1 mph 21.9 mph N/A   Unknown
10:15 AM 39.2 °F 30.5 °F 26.6 °F 61% 30.24 in 10.0 mi NNW 16.1 mph 21.9 mph N/A   Unknown
10:35 AM 41.0 °F 32.8 °F 26.6 °F 57% 30.24 in 10.0 mi North 16.1 mph 20.7 mph N/A   Unknown
10:55 AM 42.8 °F 35.4 °F 26.6 °F 53% 30.25 in 10.0 mi NNW 15.0 mph 24.2 mph N/A   Unknown
11:15 AM 44.6 °F 36.9 °F 26.6 °F 49% 30.25 in 10.0 mi NNW 18.4 mph 21.9 mph N/A   Unknown
11:35 AM 46.4 °F 40.1 °F 26.6 °F 46% 30.25 in 10.0 mi North 15.0 mph 21.9 mph N/A   Unknown
11:55 AM 46.4 °F 39.5 °F 26.6 °F 46% 30.25 in 10.0 mi North 17.3 mph 24.2 mph N/A   Unknown
12:15 PM 46.4 °F 40.7 °F 24.8 °F 43% 30.24 in 10.0 mi North 12.7 mph 20.7 mph N/A   Unknown
12:35 PM 48.2 °F - 24.8 °F 40% 30.24 in 10.0 mi North 17.3 mph 21.9 mph N/A   Unknown
12:55 PM 48.2 °F - 24.8 °F 40% 30.24 in 10.0 mi NNW 16.1 mph 21.9 mph N/A   Unknown
1:15 PM 48.2 °F - 24.8 °F 40% 30.24 in 10.0 mi North 15.0 mph 21.9 mph N/A   Unknown
1:35 PM 50.0 °F - 23.0 °F 35% 30.24 in 10.0 mi North 12.7 mph 24.2 mph N/A   Unknown
1:55 PM 50.0 °F - 19.4 °F 30% 30.23 in 10.0 mi NNE 15.0 mph 19.6 mph N/A   Unknown
2:15 PM 51.8 °F - 23.0 °F 33% 30.24 in 10.0 mi North 13.8 mph 19.6 mph N/A   Unknown
2:35 PM 51.8 °F - 24.8 °F 35% 30.23 in 10.0 mi NNE 10.4 mph - N/A   Unknown
2:55 PM 51.8 °F - 24.8 °F 35% 30.23 in 10.0 mi NNE 12.7 mph 16.1 mph N/A   Unknown
3:15 PM 53.6 °F - 26.6 °F 35% 30.23 in 10.0 mi North 11.5 mph - N/A   Unknown
3:35 PM 53.6 °F - 26.6 °F 35% 30.22 in 10.0 mi North 11.5 mph 19.6 mph N/A   Unknown
3:55 PM 53.6 °F - 26.6 °F 35% 30.21 in 10.0 mi North 13.8 mph 18.4 mph N/A   Unknown
4:15 PM 53.6 °F - 26.6 °F 35% 30.21 in 10.0 mi North 15.0 mph 18.4 mph N/A   Unknown
4:35 PM 53.6 °F - 24.8 °F 33% 30.21 in 10.0 mi North 15.0 mph 21.9 mph N/A   Unknown
4:55 PM 55.4 °F - 23.0 °F 29% 30.21 in 10.0 mi North 15.0 mph 19.6 mph N/A   Unknown
5:15 PM 55.4 °F - 21.2 °F 26% 30.21 in 10.0 mi North 18.4 mph - N/A   Unknown
5:35 PM 55.4 °F - 21.2 °F 26% 30.21 in 10.0 mi North 12.7 mph 20.7 mph N/A   Unknown
5:55 PM 55.4 °F - 21.2 °F 26% 30.22 in 10.0 mi NNW 12.7 mph 19.6 mph N/A   Unknown
6:15 PM 55.4 °F - 19.4 °F 25% 30.22 in 10.0 mi North 11.5 mph 16.1 mph N/A   Unknown
6:35 PM 55.4 °F - 19.4 °F 25% 30.22 in 10.0 mi North 11.5 mph - N/A   Unknown
6:55 PM 53.6 °F - 21.2 °F 28% 30.22 in 10.0 mi NNW 8.1 mph - N/A   Unknown
7:15 PM 51.8 °F - 23.0 °F 33% 30.22 in 10.0 mi NNW 8.1 mph - N/A   Unknown
7:55 PM 44.6 °F 40.7 °F 23.0 °F 43% 30.23 in 10.0 mi NW 6.9 mph - N/A   Unknown
8:15 PM 41.0 °F 35.2 °F 23.0 °F 49% 30.24 in 10.0 mi NW 9.2 mph - N/A   Unknown
8:35 PM 39.2 °F 33.6 °F 24.8 °F 56% 30.24 in 10.0 mi North 8.1 mph - N/A   Unknown
8:55 PM 44.6 °F 40.2 °F 24.8 °F 46% 30.25 in 10.0 mi NNW 8.1 mph - N/A   Unknown
9:15 PM 39.2 °F 33.6 °F 24.8 °F 56% 30.25 in 10.0 mi North 8.1 mph - N/A   Unknown
9:35 PM 37.4 °F 30.8 °F 24.8 °F 60% 30.26 in 10.0 mi North 9.2 mph - N/A   Unknown
9:55 PM 39.2 °F 34.2 °F 26.6 °F 61% 30.27 in 10.0 mi NNW 6.9 mph - N/A   Unknown
10:15 PM 37.4 °F - 26.6 °F 65% 30.28 in 10.0 mi Calm Calm - N/A   Unknown
10:35 PM 37.4 °F 34.9 °F 28.4 °F 70% 30.27 in 10.0 mi NNW 3.5 mph - N/A   Unknown
10:55 PM 37.4 °F 32.1 °F 28.4 °F 70% 30.27 in 10.0 mi NNW 6.9 mph - N/A   Unknown
11:15 PM 37.4 °F 32.1 °F 28.4 °F 70% 30.27 in 10.0 mi WNW 6.9 mph - N/A   Unknown
11:35 PM 35.6 °F 29.9 °F 28.4 °F 75% 30.27 in 10.0 mi NW 6.9 mph - N/A   Unknown
11:55 PM 35.6 °F 31.7 °F 26.6 °F 70% 30.27 in 10.0 mi NNW 4.6 mph - N/A   Unknown